SIRIUS FM-6 (39360 NORAD) Tracking and Keplerian Element Data

This shows tracking and keplerian element data for the satellite.

Feedback or suggestion? Click here.




ElementValue
Catalog39360
NameSIRIUS FM-6
Epoch Orbit1718
Epoch Day198.502405
Epoch Year2018
RAAN1.9344
Inclination0.004
Eccentricity3.98E-05
Argument of Perigee254.0655
Mean Anonmoly103.9773
Mean Motion1.0027049
Decay Rate-3.7E-07
L11 39360U 13058A 18198.50240500 -.00000037 00000-0 00000-0 0 9992
L22 39360 0.0040 1.9344 0000398 254.0655 103.9773 1.00270490 17185

Live tracking and technical data element details for SIRIUS FM-6 (NORAD 39360). SIRIUS FM-6 can be tracked NOW for your location showing map with azimuth and elevation plus other details from your city location.

Track the satellite on the map from your city or location and see movement details for azimuth, elevation, latitude, longitude, range, height, and movement on the map or in text.







IsCatalogInMostPopularTable: catalog: 39360, numindb: 51
Update: records affected: 1



GetName: 39360 SIRIUS FM-6

Hit Count: updated at: Thu, 19 Jul 2018 03:42:48 GMT